Location: Niagara
(43.2500°N, 79.0670°W)
Time: 01:01:42
(UTC-04:00)

ISS - Pass Details

Date: 12 October 2017
Orbit: 401 x 408 km, 51.6° (Epoch: 21 October)

Event Time Altitude Azimuth Distance (km) Brightness Sun altitude
Rises 19:33:09 0° 304° (NW) 2,326 1.0 -10.9°
Reaches altitude 10° 19:35:16 10° 308° (NW) 1,465 -0.2 -11.2°
Maximum altitude 19:38:30 57° 28° (NNE) 481 -3.7 -11.8°
Enters shadow 19:40:30 21° 103° (ESE) 981 -2.5 -12.2°
